Regional Weather Roundup
Issued by NWS Charleston, SC

Current Version | Previous Version | Graphics & Text | Print | Product List | Glossary On
Versions: 1 2 3 4 5 6 7 8 9 10 11 12 13 14 15 16 17 18 19 20 21 22 23 24 25 26 27 28 29 30 31 32 33 34 35 36 37 38 39 40 41 42 43 44 45 46 47 48 49 50
000 ASUS42 KCHS 201210 RWRCHS REGIONAL WEATHER ROUNDUP NATIONAL WEATHER SERVICE CHARLESTON SC 800 AM EDT SAT SEP 20 2014 NOTE: "FAIR" INDICATES FEW OR NO CLOUDS BELOW 12,000 FEET WITH NO SIGNIFICANT WEATHER AND/OR OBSTRUCTIONS TO VISIBILITY. NOT ALL STATIONS ARE QUALITY CONTROLLED BY THE NATIONAL WEATHER SERVICE. USE DATA WITH CAUTION...ESPECIALLY DEWPOINT OBSERVATIONS. SCZ027-030-031-034>040-042>050-201300- ...SOUTH CAROLINA... CITY SKY/WX TMP DP RH WIND PRES REMARKS N CHARLESTON CLOUDY 70 66 87 NE10 30.05S 6HR MIN TEMP: 70; 6HR MAX TEMP: 73; 6HR PCP: 0.06; WATERFRONT PRK N/A 73 N/A N/A N20 N/A FORT JOHNSON NOT AVBL MOUNT PLEASANT FAIR 70 68 94 N7 30.05S FOG JOHNS ISLAND DRIZZLE 70 70 100 N6 30.04F PINOPOLIS N/A 72 66 83 NE16 29.99S MONCKS CORNER N/A 68 66 94 N6 30.07S SUMMERVILLE FAIR 68 68 100 N7 30.08R BEAUFORT MCAS CLOUDY 71 68 90 W10 30.05R 6HR MIN TEMP: 71; 6HR MAX TEMP: 73; 6HR PCP: 0.17; BEAUFORT ARPT CLOUDY 72 72 100 NE16 30.03S HILTON HEAD IS MOCLDY 73 72 94 N12 30.04R GEORGETOWN NOT AVBL WALTERBORO CLOUDY 68 N/A N/A N6 30.08R ORANGEBURG CLEAR 65 60 84 NE8 30.11R 6HR MIN TEMP: 64; 6HR MAX TEMP: 70; BARNWELL FAIR 64 63 94 NE9 30.11R AIKEN FAIR 63 63 100 NE9 30.16S MANNING FAIR 64 64 100 N6 30.10S KINGSTREE NOT AVBL COLUMBIA PTCLDY 67 59 75 NE7 30.14R 6HR MIN TEMP: 66; 6HR MAX TEMP: 71; SUMTER CLEAR 63 58 83 NE12 30.12R 6HR MIN TEMP: 62; 6HR MAX TEMP: 66; FLORENCE MOSUNNY 63 59 87 N9 30.13S 6HR MIN TEMP: 63; 6HR MAX TEMP: 67; MYRTLE BEACH SUNNY 68 61 77 NE14 30.08S N MYRTLE BEACH CLOUDY 67 61 81 NE12 30.09S 6HR MIN TEMP: 66; 6HR MAX TEMP: 70; $$ GAZ063-065-086>088-099>101-113>116-118-119-134-136>141-150-201300- ...GEORGIA... CITY SKY/WX TMP DP RH WIND PRES REMARKS SAVANNAH ARPT LGT RAIN 72 69 90 N10 30.03S 6HR MIN TEMP: 71; 6HR MAX TEMP: 72; 6HR PCP: 0.02; HUNTER AAF DRIZZLE 72 72 100 N8 30.00S 6HR MIN TEMP: 71; 6HR MAX TEMP: 72; 6HR PCP: 0.08; FORT STEWART CLOUDY 71 68 90 N10 30.01R 6HR MIN TEMP: 70; 6HR MAX TEMP: 71; STATESBORO NOT AVBL SYLVANIA CLOUDY 71 69 94 NE8 30.08R CLAXTON CLOUDY 72 72 100 NE6 30.05R THOMSON CLOUDY 68 67 96 NE7 30.18R AUGUSTA-BUSH PTCLDY 66 62 87 N6 30.11R 6HR MIN TEMP: 66; 6HR MAX TEMP: 68; AUGUSTA-DANIEL PTCLDY 67 61 81 NE12 30.13R SWAINSBORO CLOUDY 72 72 100 NE6 30.08S FOG VIDALIA CLOUDY 70 68 94 NE8 30.06R ALMA CLOUDY 70 67 90 VRB6 30.02R 6HR MIN TEMP: 69; 6HR MAX TEMP: 70; WAYCROSS CLOUDY 74 73 95 NE7 30.00S JESUP CLOUDY 73 72 94 NE6 30.01R BRUNSWICK CLOUDY 72 68 88 NE6 30.00R SAINT SIMONS LGT RAIN 75 70 84 NE14G22 29.98R 6HR MIN TEMP: 70; 6HR MAX TEMP: 76; 6HR PCP: 0.24; $$ SCZ027-028-034-036>038-045-046-048>050-GAZ119-141-201300- ...LAKE AND SUPPLEMENTAL COASTAL OBSERVATIONS... STATION/POSITION TIME TEMP WIND PRES WAVE SWELL AIR SEA DIR/SP/G HT/PER HT/PER/DIR (UTC) (F) (DEG/KT/KT) (MB) (FT/S) (FT/S/D) UPR LAKE MARION NOT AVBL WINYAH BAY 1100 71 20/ 9 1018.0S LAKE MURRAY 1100 64 20/ 3/ 6 1020.0S ACE BASIN NERRS 1100 69 20/ 3 1017.0S FORT PULASKI 1200 76 20/ 13/ 16 1016.5R SAPELO ISLAND 1100 72 50/ 5 1015.0S $$ ANZ835-935-AMZ111-154-330-350-352-354-374-450-454-472-201300- ...C-MAN AND BUOY OBSERVATIONS... STATION/POSITION TIME TEMP WIND PRES WAVE SWELL AIR SEA DIR/SP/G HT/PER HT/PER/DIR (UTC) (F) (DEG/KT/KT) (MB) (FT/S) (FT/S/D) FOLLY BEACH CMAN 1100 72 10/ 13/ 17 1017.6R BUOY 41004 1200 80 82 50/ 19/ 23 1015.2F 7/ 7 3/15 BUOY 41008 1200 77 83 80/ 23/ 31 1014.4F 6/ 6 5E ST. MARYS GA 1200 84 N/A 4/ 6 FRYING PAN BUOY NOT AVBL BUOY 41025 1200 80 70/ 19/ 23 1018.5F 7/ 8 2/100/15 CAPE LOOKOUT NC 1100 73 20/ 20/ 24 1019.2R BUOY 41002 1104 76 82 100/ 16/ 19 1017.0R 7/ 8 3/ 40/ 8 BUOY 41010 1200 79 84 120/ 12/ 14 1012.4S 6/ 8 5/ 10/ 8 BUOY 41012 NOT AVBL ST AUGUSTINE FL 1200 71 320/ 7/ 8 1014.5R CAPERS NEARSHORE 1100 75 40/ 16/ 19 N/A FRIPP NEARSHORE NOT AVBL $$

USA.gov is the U.S. government's official web portal to all federal, state and local government web resources and services.